Theta_e
296 298 300 300 300 301 301 302 302 303 302 301 300 300 300 302 303 304 307 309 314 328 336 338 338 337 335 334 334 332 327 325 322 319 316 316 317 318 319 320 319 320 324
295 297 298 298 298 299 300 301 302 303 304 302 301 301 301 302 304 305 306 308 311 314 328 334 336 338 336 335 333 331 327 325 323 321 315 312 314 316 319 319 321 321 322
293 295 296 297 297 297 298 301 302 303 304 305 305 304 302 301 301 303 304 306 310 312 314 325 334 334 337 335 334 333 329 324 321 323 318 311 309 312 316 319 321 321 321
294 295 295 296 297 298 299 301 301 302 304 304 304 303 303 302 304 303 304 305 308 310 313 315 324 332 333 334 335 335 332 329 323 321 323 320 317 311 308 315 318 321 321
292 293 294 296 298 299 299 300 301 302 304 304 304 304 303 304 305 301 301 303 305 309 312 314 316 323 331 331 332 334 332 331 327 322 322 320 318 317 312 310 312 315 319
294 294 296 298 297 299 300 300 302 304 307 308 309 306 304 304 303 301 301 302 303 304 308 315 318 324 328 329 329 330 331 329 329 326 324 320 318 317 315 312 311 312 315
294 295 295 297 298 299 300 302 303 303 306 308 309 308 306 305 304 303 303 302 302 303 305 308 315 319 325 327 327 327 327 327 327 326 324 324 322 322 320 318 317 313 316
295 296 297 298 298 299 300 301 302 302 304 307 309 309 307 307 306 305 304 303 304 303 304 305 310 316 320 324 326 326 325 325 325 326 324 323 322 322 321 319 317 314 316
296 296 297 298 299 299 300 301 301 301 303 305 307 307 307 305 305 305 304 305 303 305 304 306 308 310 314 318 320 322 321 323 324 324 323 321 322 322 322 322 321 317 313
295 295 297 297 299 300 300 301 301 301 302 304 306 307 306 307 305 304 303 303 303 303 304 305 306 310 313 315 317 318 319 319 321 322 323 323 323 322 322 322 321 321 318
295 295 295 297 298 299 300 300 300 300 302 304 303 305 306 304 304 303 303 303 303 303 304 305 306 306 307 310 312 313 315 316 318 319 320 321 323 322 322 322 323 322 321
296 294 294 296 296 296 298 298 299 299 300 305 304 305 304 302 302 302 303 303 303 304 304 305 306 306 306 306 307 309 312 313 314 316 317 318 320 320 321 321 321 321 322
294 293 292 292 293 294 296 297 297 297 299 301 305 310 307 306 302 301 302 303 304 304 304 305 305 305 306 306 306 307 308 310 312 314 315 316 318 320 321 321 320 321 321
292 291 290 291 292 292 293 295 296 297 298 300 302 306 308 308 310 306 306 304 304 304 304 305 306 307 308 308 308 307 307 309 311 312 314 315 316 318 320 320 320 320 319
291 290 290 290 291 291 292 293 296 296 298 299 301 303 305 306 306 306 306 306 305 306 307 307 307 306 307 308 306 307 308 309 309 311 313 315 314 312 316 319 319 319 318
290 290 290 290 290 291 291 292 294 295 297 298 297 299 300 301 302 302 302 302 302 302 303 303 303 302 305 304 304 304 306 306 307 307 308 309 308 310 311 309 305 307 314
290 290 289 289 289 290 290 289 291 294 295 296 297 297 297 298 299 300 299 300 300 300 300 300 301 300 301 303 304 306 306 307 307 308 306 303 304 306 305 304 303 302 302
290 289 289 289 289 289 289 288 290 292 294 294 295 296 297 297 298 298 298 298 298 297 297 297 298 299 300 301 303 302 301 300 299 300 301 300 300 302 302 299 297 297 297
289 289 289 289 288 288 288 287 286 288 290 292 293 294 296 296 297 296 296 296 295 295 295 296 296 297 298 300 300 299 298 297 297 298 298 299 298 300 300 297 295 294 294
290 289 290 290 288 288 287 286 285 285 287 288 290 291 292 294 295 295 295 295 295 294 294 294 295 296 297 300 300 298 297 295 295 295 296 298 297 298 298 296 295 292 292
290 291 290 289 289 289 288 286 285 285 286 288 288 289 288 289 290 292 294 294 293 292 291 291 291 290 294 297 298 298 295 294 293 292 292 294 295 295 295 294 293 292 292
290 291 289 289 289 289 287 286 285 287 286 286 286 286 286 287 288 287 287 287 287 285 284 284 285 286 287 295 296 296 296 294 291 290 291 292 292 292 292 291 292 291 289
290 290 289 289 289 288 287 286 286 286 286 284 284 284 285 285 285 284 284 285 285 284 283 283 282 282 284 284 292 295 295 293 289 290 290 290 290 289 288 289 289 287 282
290 290 289 288 288 288 288 287 287 286 285 284 283 283 284 283 283 284 284 283 283 283 284 283 282 281 282 283 283 285 287 290 286 287 286 287 287 287 285 283 283 282 280
290 290 289 289 289 289 288 288 287 286 285 284 283 282 283 282 282 283 281 281 283 285 283 283 283 281 281 284 287 286 285 284 285 282 281 280 279 279 279 279 279 280 279
290 290 289 289 289 289 289 288 288 286 285 284 283 282 281 281 282 281 282 287 288 290 290 289 286 285 287 288 289 289 289 289 287 281 279 278 278 278 278 278 278 279 279
Wind_Speed
6 6 6 6 7 5 7 7 7 8 4 3 4 4 5 5 5 5 8 7 7 9 8 10 9 8 10 12 12 10 9 9 6 3 2 3 5 5 6 5 7 8 9
10 9 8 6 5 6 7 8 8 7 6 3 4 4 4 5 6 4 6 7 7 9 9 10 11 11 9 12 11 10 8 8 8 7 2 3 3 4 8 6 7 9 7
9 13 15 14 11 8 7 8 8 8 8 8 6 5 3 3 2 4 4 6 8 9 9 10 10 12 9 11 11 11 13 9 6 11 5 3 5 1 4 11 9 9 7
12 11 14 15 14 13 10 13 12 12 10 8 8 11 10 11 9 7 5 6 7 8 9 10 11 11 10 11 11 10 10 10 9 5 10 3 5 5 3 3 6 8 10
8 13 14 16 16 14 11 12 13 11 11 11 11 10 12 10 8 4 7 7 6 7 7 9 10 12 9 11 14 10 12 11 10 8 8 10 3 1 3 4 4 2 6
13 13 14 16 14 14 12 10 12 11 11 12 14 15 15 13 9 6 6 6 5 4 6 8 10 10 9 10 10 12 11 11 11 9 10 9 9 11 5 4 4 4 5
13 15 18 17 15 15 14 12 12 13 13 13 15 15 15 14 14 11 8 7 5 4 6 7 7 7 9 8 6 9 10 10 9 12 9 9 10 9 11 10 8 5 4
9 11 13 13 13 15 15 14 13 12 12 13 14 12 12 8 9 9 6 6 7 6 7 7 7 7 7 7 8 7 6 7 9 12 10 8 8 6 8 10 10 9 6
9 10 12 13 13 14 16 15 14 14 13 12 13 10 9 10 8 9 7 7 7 6 7 7 7 7 7 7 7 7 6 6 8 10 9 9 8 7 5 5 5 9 8
10 10 11 13 13 14 14 13 12 12 12 12 10 8 7 8 8 6 8 8 7 7 6 6 6 7 6 6 6 5 6 6 5 5 8 9 8 8 7 7 7 7 10
11 11 10 10 12 13 13 11 11 12 10 8 6 7 7 6 5 5 6 6 6 6 6 6 6 6 6 5 4 5 5 6 7 7 9 12 12 10 9 8 8 8 9
8 8 9 10 11 11 11 12 11 11 11 9 6 7 6 6 6 6 7 6 6 6 6 6 6 6 5 5 5 6 5 6 6 8 8 10 7 11 11 10 12 12 12
7 8 9 9 10 11 11 10 11 12 12 10 9 6 5 4 6 6 6 5 6 6 6 5 6 6 6 6 6 6 7 7 7 7 8 9 10 12 10 11 11 10 10
6 6 8 8 10 10 9 11 12 12 12 9 7 5 5 7 5 4 5 5 5 5 5 6 6 5 5 5 6 6 7 7 8 7 8 9 10 12 11 11 12 10 9
6 6 7 9 9 11 11 10 12 13 13 10 8 8 8 8 7 7 7 6 6 4 3 2 1 2 3 2 4 5 6 7 7 7 8 9 11 15 13 9 12 10 8
5 6 5 7 9 10 11 12 11 11 11 11 10 10 9 8 9 8 7 6 6 5 6 6 5 5 3 7 10 10 8 5 6 6 3 2 1 3 5 6 12 8 3
6 6 5 5 6 6 7 9 10 10 9 10 10 10 10 9 8 7 7 7 6 5 6 5 4 4 5 11 11 9 6 5 4 4 5 3 2 7 9 13 13 15 14
6 5 4 5 5 5 6 6 8 9 8 8 9 9 9 8 7 7 8 7 5 7 6 6 6 4 4 6 6 9 7 6 7 6 5 5 5 4 7 9 9 8 8
6 5 3 3 3 4 5 5 6 7 8 9 9 9 8 7 6 7 7 7 6 6 6 5 7 6 6 9 8 9 7 8 8 6 7 7 8 11 10 9 9 9 8
4 5 5 3 2 3 2 3 4 4 5 5 5 6 5 5 5 5 5 4 4 5 5 7 8 12 7 10 9 7 6 8 6 8 9 16 12 15 14 7 7 9 4
7 6 5 5 5 3 2 2 3 3 5 3 3 4 4 3 4 3 2 3 4 4 5 5 6 7 10 9 13 10 6 6 6 5 6 6 16 17 16 13 7 6 5
7 7 6 6 6 5 4 5 5 4 4 2 2 3 4 4 3 3 2 3 4 4 4 4 4 4 7 9 11 12 12 9 6 6 5 8 15 14 13 9 12 11 7
8 6 7 7 7 6 6 6 6 5 4 2 2 2 2 3 4 3 2 2 2 2 2 2 3 4 4 5 13 12 12 12 6 5 8 10 10 12 9 13 14 11 5
8 6 7 8 8 7 7 8 6 5 5 5 4 2 1 1 2 2 2 1 1 1 1 1 2 2 3 4 4 4 4 9 6 7 6 8 9 10 8 7 6 4 4
6 6 8 8 10 7 8 8 8 6 6 6 5 5 4 3 2 2 1 1 1 1 1 1 1 1 2 3 4 3 3 3 5 5 3 3 3 3 3 3 4 3 4
7 7 8 7 9 7 8 8 7 7 7 6 5 5 4 3 3 2 1 2 1 3 4 3 3 1 1 2 4 4 4 6 6 3 2 2 2 3 2 3 3 3 5
Wind_Direction
310 333 343 340 340 331 329 324 315 295 277 258 255 245 237 243 245 242 246 245 251 263 253 239 224 213 213 216 212 208 204 218 194 142 267 253 230 228 226 220 216 214 216
339 331 323 316 307 286 289 283 274 271 270 236 232 231 223 223 234 225 234 229 231 240 251 257 238 223 215 222 216 211 213 219 195 200 137 224 290 234 223 219 225 224 212
327 327 328 324 319 303 278 281 269 263 260 254 260 264 270 286 246 241 250 237 231 237 239 246 253 238 232 213 216 212 213 220 200 219 162 159 223 191 203 225 222 222 221
328 321 318 312 308 301 292 287 278 271 264 250 252 246 248 254 247 232 225 240 236 238 234 236 245 250 239 240 217 217 214 216 216 227 229 177 146 187 283 272 235 221 225
319 315 313 307 302 295 285 279 274 260 260 257 245 246 248 251 250 217 227 241 247 241 241 235 237 241 241 241 241 230 213 215 220 209 201 247 162 160 156 247 265 260 236
323 318 315 313 304 301 299 283 281 278 269 260 259 243 242 244 236 224 227 238 241 241 243 241 238 238 236 233 232 231 232 227 227 219 222 200 217 214 205 217 232 220 244
323 325 324 321 319 316 312 307 299 293 289 281 278 243 238 238 237 231 224 225 237 233 242 232 236 237 231 226 220 228 229 222 230 229 225 228 230 227 221 225 243 231 237
308 310 312 315 316 316 312 310 308 302 291 289 280 245 236 231 231 225 214 223 235 237 228 237 225 226 228 227 222 231 225 230 226 229 230 231 231 223 247 231 219 242 247
320 319 326 325 320 315 311 305 299 293 288 290 293 240 219 222 222 228 224 236 231 229 237 237 246 235 227 227 220 231 221 210 228 230 215 224 219 233 224 237 235 224 245
326 335 337 334 325 318 318 315 304 296 292 292 298 251 230 222 221 215 218 221 224 226 244 252 246 251 238 233 219 228 221 215 231 231 226 229 231 220 201 212 231 217 234
330 329 334 333 319 314 318 319 330 324 312 290 296 302 263 236 225 223 228 227 226 228 234 237 256 246 251 244 227 240 243 228 231 230 233 238 223 222 223 221 228 225 225
314 319 325 327 325 322 328 337 337 340 342 333 291 282 248 233 228 222 226 225 229 225 232 239 240 247 235 238 234 246 240 233 238 232 224 233 229 225 216 217 224 229 230
328 322 332 333 334 335 340 340 342 346 343 340 336 10 19 264 247 253 247 235 235 239 240 234 242 250 252 251 242 232 241 242 235 232 231 231 225 236 231 225 228 225 230
311 316 324 331 337 336 341 345 351 349 347 347 341 11 7 3 333 271 253 248 242 247 247 242 245 250 255 249 251 249 244 238 240 233 230 241 236 234 237 233 230 235 234
309 313 321 332 342 340 344 354 353 350 353 356 1 9 1 18 18 27 33 30 21 10 334 275 302 323 275 274 285 258 244 243 251 244 238 235 234 224 228 233 238 227 238
281 300 328 333 339 343 344 346 351 350 355 9 10 10 13 17 17 17 22 43 48 32 31 28 12 354 335 325 312 281 265 243 243 253 264 60 334 152 195 106 57 62 236
269 297 320 315 317 330 335 340 340 342 2 9 13 18 12 12 14 20 38 29 20 28 39 33 25 15 344 328 301 268 257 270 224 187 129 112 61 115 122 100 87 67 60
248 268 290 313 326 335 348 336 343 351 5 15 12 13 19 16 14 20 24 28 19 24 25 20 5 5 1 16 42 77 91 77 47 45 55 83 77 79 115 105 90 72 51
222 215 224 256 311 336 331 349 352 350 359 10 9 5 4 15 23 31 26 24 29 30 27 17 14 20 13 22 72 94 87 87 79 69 67 74 72 75 101 104 99 90 79
201 210 215 219 268 294 311 358 342 347 353 347 344 350 356 18 25 24 29 25 34 38 29 26 18 19 12 30 59 80 88 83 77 63 60 72 80 72 67 67 103 95 74
215 216 209 230 235 228 218 264 284 305 290 312 333 352 2 19 8 27 34 47 42 44 35 32 23 14 14 32 41 56 77 86 82 65 59 63 75 71 70 72 65 82 92
220 218 219 233 236 218 205 242 254 246 263 282 322 343 355 1 4 45 22 41 71 74 52 40 24 7 3 30 55 71 79 80 82 72 60 70 74 72 75 77 85 88 85
224 217 216 233 236 221 205 229 243 227 238 243 267 299 348 14 12 35 27 39 44 69 42 41 22 360 359 3 17 44 76 80 77 93 98 93 82 68 61 72 65 57 44
226 215 216 230 241 222 217 224 231 221 220 232 240 248 246 185 27 47 48 68 42 44 120 91 59 11 10 8 9 23 38 65 54 59 75 82 81 74 73 59 51 47 60
230 208 219 230 240 217 226 223 219 205 221 225 225 223 208 182 155 107 127 97 320 232 253 235 168 84 18 347 21 27 58 83 100 80 52 47 45 50 45 42 44 48 36
231 225 230 230 242 220 231 227 209 199 212 225 223 219 210 204 191 170 147 3 97 37 45 113 128 358 161 29 29 50 106 130 140 75 105 91 85 77 63 53 38 32 26